CZ-4B DEB, 44589

Orbit data source: Space-Track

CZ-4B DEB, 44589 is space debris in SSO originally from a launch on Thu, 14 Oct 1999 UTC launched from the Taiyaun Space Center, China (TSC). Debris objects in space refer to the collection of defunct objects orbiting the Earth. Examples of debris include non-operational satellites, rocket bodies, and fragments generated from explosions, collisions, or faulty payload assembly.

Loading next visibility...
Identifier
44589, 1999-057TB
Orbit
SSO
Country
Flag of CNCN / PRC
Related business
Manufacturer
Unknown
Mission
Spacecraft
Bus & Motor
Unknown
Mass
Unknown
Launch date (UTC)
1999-10-14 (26 years ago)
Launch vehicle
Unknown
Launch site
Taiyaun Space Center, China (TSC)
Object type
Payload
Rocket body
Debris
Shape & HBR
Unknown
Radar Cross Section
Small (<0.1 m²)

Expand to show TLE details & history
Last TLE update: 15 hours ago

TLE from 15 hours ago
0 CZ-4B DEB
1 44589U 99057TB  25261.82175165  .00000576  00000-0  88265-4 0  9992
2 44589  98.8102 112.6589 0083327 148.7434 211.8766 14.75907777635623
Epoch: 2025-09-18T19:43Z
TLE epoch observation values (Epoch: 2025-09-18T19:43:19.342Z)
Latitude
-0.00004°
Longitude
178.85047°
Altitude
695.08 km
Speed
7.482 km/s
True Right ascension
07h 30m 38s
True Declination
0° 00' 00"
Sunlit
Object was in daylight at epoch
Visualization orbit readout
Latitude
Unknown
Longitude
Unknown
Altitude
Unknown
Speed
Unknown
Apparent Right ascension
Unknown
Apparent Declination
Unknown
Sunlit
N/A
Visualization observer readout
Local Sidereal Time
03:54:27
Azimuth
Unknown
Elevation
Unknown
Doppler factor
Unknown
Orbital elements
Apogee altitude
697.835 km
Perigee altitude
580.885 km
Semi-major axis
7,017.497 km
Eccentricity
0.00833
Inclination
98.8102°
RAAN
112.6589°
Arg. of periapsis
148.7434°
True anomaly
211.37678°
Mean anomaly
211.8766°
Eccentric anomaly
211.62625°
Mean motion
3.69207 °/min
Orbital period
97.51 mins
BSTAR
0.000088265
Loading maneuver chart data...
Computing Atmospheric mass density...
Loading historical data...
Loading historical data...
Loading historical data...
Loading historical data...
Loading historical data...
Loading historical data...
Loading historical data...

Documentation

Showing up to 5 results
|